Home   Weather   Youngstown   Past weeks

Flag for USA Past Weather in Youngstown, Ohio, USA — Yesterday and Last 2 Weeks

Now
51 °F

High level clouds.


Feels Like: 50 °F
Forecast: 43 / 67 °F
Wind: 5 mph from Northeast

Location: Youngstown-Warren Regional Airport

Current Time: Apr 23, 2017 at 11:41:54 pm

Latest Report: Apr 23, 2017 at 10:51 pm


Visibility: 10 mi

Pressure: 30.08 "Hg

Humidity: 54%

Dew Point: 35 °F

Location of YoungstownLocation

Past Weather in Youngstown — Graph

°F

Youngstown Temperature Yesterday

Maximum temperature yesterday: 52 °F (at 5:51 pm)
Minimum temperature yesterday: 39 °F (at 6:51 am)
Average temperature yesterday: 46 °F

High & Low Weather Summary for the Past Weeks

 TemperatureHumidityPressure
High79 °F (Apr 20, 3:51 pm)100% (Apr 20, 5:51 am)30.49 "Hg (Apr 20, 5:51 am)
Low31 °F (Apr 23, 6:51 am)23% (Apr 23, 3:51 pm)29.79 "Hg (Apr 21, 3:51 am)
Average58 °F59%30.11 "Hg
* Reported Apr 8 9:51 pm — Apr 23 9:51 pm, Youngstown, Weather by CustomWeather, © 2017

Note: Actual official high and low records may vary slightly from our data, if they occured in-between our weather recording intervals... More about our weather records

Advertising

Youngstown Weather History for the Previous 24 Hours

Scroll right to see more
 ConditionsComfort  
Time TempWeatherWind HumidityBarometerVisibility
9:51 pm
Sun, Apr 23
54 °FPassing clouds.6 mph51%30.08 "Hg10 mi
8:51 pm57 °FPassing clouds.9 mph47%30.07 "Hg10 mi
7:51 pm60 °FPartly sunny.7 mph46%30.04 "Hg10 mi
6:51 pm65 °FPartly sunny.9 mph31%30.04 "Hg10 mi
5:51 pm68 °FPartly sunny.8 mph25%30.03 "Hg10 mi
4:51 pm69 °FScattered clouds.5 mph25%30.03 "Hg10 mi
3:51 pm68 °FScattered clouds.3 mph23%30.04 "Hg10 mi
2:51 pm66 °FScattered clouds.7 mph28%30.05 "Hg10 mi
1:51 pm63 °FScattered clouds.N/A30%30.08 "Hg10 mi
12:51 pm61 °FScattered clouds.3 mph35%30.10 "Hg10 mi
11:51 am58 °FPassing clouds.3 mph41%30.11 "Hg10 mi
10:51 am54 °FPassing clouds.9 mph49%30.15 "Hg10 mi
9:51 am51 °FPassing clouds.10 mph52%30.16 "Hg10 mi
8:51 am47 °FSunny.8 mph66%30.16 "Hg10 mi
7:51 am41 °FSunny.5 mph80%30.15 "Hg10 mi
6:51 am31 °FSunny.6 mph96%30.13 "Hg10 mi
5:51 am33 °FClear.6 mph96%30.12 "Hg10 mi
4:51 am38 °FClear.6 mph86%30.11 "Hg10 mi
3:51 am38 °FClear.7 mph83%30.11 "Hg10 mi
2:51 am37 °FPassing clouds.7 mph82%30.12 "Hg10 mi
1:51 am39 °FPassing clouds.8 mph79%30.13 "Hg10 mi
12:51 am40 °FPassing clouds.5 mph77%30.14 "Hg10 mi
11:51 pm
Sat, Apr 22
42 °FMostly cloudy.8 mph73%30.13 "Hg10 mi
Weather by CustomWeather, © 2017

See weather overviewHow to use our weather pages